Showing default

O3B FM13, 43234

Orbit data source: Space-Track

O3B FM13, 43234 is a payload satellite owned by O3B SES (JE) that was launched on Fri, 09 Mar 2018 UTC via a SOYUZ-ST-B launch vehicle from the French Guiana (FRGUI). Payloads include a variety of satellites, spacecraft, and rockets equipped with specific instruments for various scientific and technological missions. These include communications satellites like Starlink; space stations such as the ISS; scientific satellites like the Hubble; Earth observation satellites from companies like Planet Labs, Umbra, and HawkEye 360; GPS; miniature CubeSats for education and research; and military/defense satellites.

Loading next visibility...
O3B FM13 details
Identifier
43234, 2018-024D
Orbit
Active
Last TLE update3 days ago
Origin
Flag of JEO3B SES (JE / O3B)
ManufacturerThales Alenia
MissionOperational Commercial Communications
Bus & MotorPRISMA?, LS-400 AOCS?
Mass700 kg wet, ~500 kg dry
Launch date (UTC)
2018-03-09 (7 years ago)
Launch vehicle
SOYUZ-ST-B
Launch site
French Guiana (FRGUI)
Object type
Payload
Rocket body
Debris
Shape & HBRTrap Box + 2 Pan, 12 m
Radar Cross Section21.980 m², Large (>1 m²)

Expand to show TLE details & history

TLE from 3 days ago
0 O3B FM13
1 43234U 18024D   24345.74210438 -.00000010  00000-0  00000-0 0  9990
2 43234   0.0622 335.1415 0003321 295.0538  89.7702  5.00115117123382
Epoch: 2024-12-10T17:48Z
Definitive object data (Epoch: 2024-12-10T17:48:37.818Z)
Latitude0.02854°
Longitude12.8957°
Altitude8,064.359 km
Speed5.254 km/s
True Right ascension00h 00m 00s
True Declination0° 01' 42"
Sunlit
Object was in daylight at TLE epoch
Visualization TLE readout
Latitude0.06155°
Longitude99.73053°
Altitude8,069.151 km
Speed5.253 km/s
Apparent Right ascension06h 53m 41s
Apparent Declination-19° 54' 01"
Sunlit
Object is in full shadow
Visualization observer readout
Local Sidereal Time03:04:18
Azimuth126.54° SE
Elevation9.831°
Doppler factor1
Orbital elements
Apogee altitude8,073.754 km
Perigee altitude8,064.158 km
Semi-major axis14,447.093 km
Eccentricity0.0003321
Inclination0.0622°
RAAN335.1415°
Arg. of periapsis295.0538°
True anomaly89.80826°
Mean anomaly89.7702°
Eccentric anomaly89.78923°
Mean motion1.24989 °/min
BSTARUnknown
Orbital period288.02 mins
Loading maneuver chart data...
Loading historical data...
Loading historical data...
Loading historical data...
Loading historical data...
Loading historical data...
Loading historical data...
Loading historical data...
Other satellites on launch #24 in the year 2018 (2018-03-09 UTC)

O3B FM13 Visibility forecast

Observer location: undefined°, undefined

Span
Click to sort rows by Start time (UTC) header in descending order
Start Az.
Max El. time (UTC)
Max El. Az.
Max El.
End time (UTC)
End Az.
80 mins2024-12-14 09:10:24.698Z232.916° WSW2024-12-14 09:50:24.698Z180.419° SSW24.405°2024-12-14 10:30:24.698Z127.664° SE
78 mins2024-12-14 15:12:24.698Z230.919° WSW2024-12-14 15:50:24.698Z180.435° SSW24.309°2024-12-14 16:30:24.698Z127.658° SE
78 mins2024-12-14 21:12:24.698Z230.856° WSW2024-12-14 21:50:24.698Z180.354° SSW24.334°2024-12-14 22:30:24.698Z127.551° SE
78 mins2024-12-15 03:12:24.698Z230.871° WSW2024-12-15 03:50:24.698Z180.338° SSW24.43°2024-12-15 04:30:24.698Z127.558° SE
|